Regional Weather Roundup
Issued by NWS New Orleans/Baton Rouge, LA

Home | Current Version | Previous Version | Text Only | Print | Product List | Glossary Off
Versions: 1 2 3 4 5 6 7 8 9 10 11 12 13 14 15 16 17 18 19 20 21 22 23 24 25 26 27 28 29 30 31 32 33 34 35 36 37 38 39 40 41 42 43 44 45 46 47 48 49 50

835
ASUS44 KLIX 230805
RWRLIX
NEW ORLEANS REGIONAL WEATHER ROUNDUP
NATIONAL WEATHER SERVICE NEW ORLEANS LA
200 AM CST SUN NOV 23 2014

NOTE: "FAIR" INDICATES FEW OR NO CLOUDS BELOW 12,000 FEET WITH NO
      SIGNIFICANT WEATHER AND/OR OBSTRUCTIONS TO VISIBILITY.
      SKY/WX - SKY CONDITION AND SIGNIFICANT WEATHER.
      TMP - AIR TEMPERATURE.     DP    - DEWPOINT TEMPERATURE.
      RH  - RELATIVE HUMIDITY.   PRES  - PRESSURE.
      HI  - HEAT INDEX.          WCI   - WIND CHILL INDEX.

*  THESE STATIONS ARE NOT NWS OR FAA STATIONS AND ARE NOT UNDER
   NWS QUALITY CONTROL.

LAZ038-040-048-061>063-065>067-069-230900-
SOUTHEAST LOUISIANA

CITY           SKY/WX    TMP DP  RH WIND       PRES   REMARKS
N.O. AUDUBON     N/A     61  61 100 MISG        N/A
N.O. INTL ARPT LGT RAIN  63  61  93 E10       29.81F FOG
N.O. LAKEFRONT LGT RAIN  62  60  93 E14       29.82F
N.O. DOWNTOWN* CLOUDY    61  57  88 E12       29.82F
SLIDELL        CLOUDY    64  61  90 E7        29.83F
BATON ROUGE    CLOUDY    63  61  93 E16       29.78F
BOOTHVILLE     CLOUDY    65  65 100 E6        29.82F
BELLE CHASSE   CLOUDY    62  59  90 E10       29.81F
BOGALUSA*        N/A     64  59  83 E6        29.87F
NEW ROADS*     CLOUDY    64  62  94 SE12      29.79F
GONZALES*      CLOUDY    62  62 100 E5        29.79F
HAMMOND*       CLOUDY    64  59  82 E8        29.84F
HOUMA*         CLOUDY    64  64  99 E10       29.79F FOG
PORT FOURCHON* CLOUDY    68  66  94 E14       29.81F

$$

MSZ070-080>082-230900-
SOUTHERN MISSISSIPPI

CITY           SKY/WX    TMP DP  RH WIND       PRES   REMARKS
MCCOMB         CLOUDY    61  59  93 E9        29.84F
GULFPORT       CLOUDY    62  61  96 E9        29.84F
BILOXI         CLOUDY    62  62 100 E10       29.84F
PASCAGOULA     CLOUDY    63  61  93 NE5       29.86F

$$

COASTAL OBSERVATIONS
LAKE AND NEARSHORE STATIONS

STATION/POSITION TIME  TEMP    WIND        PRES    WAVE
                       AIR SEA DIR/SP/G            HT/PER
                 (UTC) (F)     (DEG/KT/KT) (MB)    (FT/S)
PASCAGOULA       0800   63      70/ 13/ 20 1010.5
WAVELAND YACHT   0800   62      90/ 12/ 16 1010.0
GRAND ISLE       0800   67 62  110/  6/ 10 1009.3
SOUTHWEST PASS   0800   69 72              1009.8
NEW CANAL        0800   63 54   80/  7/ 13 1009.9
SHELL BEACH      0800   59 52   60/ 14/ 15 1009.6

OFFSHORE STATIONS

STATION/POSITION TIME  TEMP    WIND        PRES    WAVE
                       AIR SEA DIR/SP/G            HT/PER
                 (UTC) (F)     (DEG/KT/KT) (MB)    (FT/S)
64 S DAUPHIN ISL 0706   72 72  130/ 16/ 19 1010.1    8/ 8

$$




USA.gov is the U.S. government's official web portal to all federal, state and local government web resources and services.